Location: Tr�vern
(48.0333°N, 4.6000°W)
Time: 07:17:09
(UTC+00:00)

Cosmos 1605 Rocket - Pass Details

Date: 14 July 2020
Orbit: 944 x 1007 km, 82.9° (Epoch: 05 August)

Event Time Altitude Azimuth Distance (km) Brightness Sun altitude
Exits shadow 01:12:00 33° 205° (SSW) 1,611 4.6 -19.5°
Maximum altitude 01:15:01 70° 281° (W) 1,045 4.1 -19.4°
Drops below altitude 10° 01:21:15 10° 5° (N) 2,727 7.6 -19.2°
Sets 01:23:47 0° 8° (N) 3,669 8.6 -19.1°
